Year,Month,Day,Hour,Minute,Value (Times are PST for temperature in C)
2023,04,18,12,44,6.90
2023,04,18,12,45,6.90
2023,04,18,12,46,6.90
2023,04,18,12,47,6.90
2023,04,18,12,48,6.90
2023,04,18,12,49,6.90
2023,04,18,12,50,6.90
2023,04,18,12,51,6.90
2023,04,18,12,52,6.90
2023,04,18,12,53,6.90
2023,04,18,12,54,6.90
2023,04,18,12,55,6.90
2023,04,18,12,56,6.90
2023,04,18,12,57,6.90
2023,04,18,12,58,6.90
2023,04,18,12,59,7.00
2023,04,18,13,00,7.00
2023,04,18,13,01,7.00
2023,04,18,13,02,7.00
2023,04,18,13,03,7.00
2023,04,18,13,04,7.10
2023,04,18,13,05,7.20
2023,04,18,13,06,7.20
2023,04,18,13,07,7.20
2023,04,18,13,08,7.20
2023,04,18,13,09,7.30
2023,04,18,13,10,7.30
2023,04,18,13,11,7.40
2023,04,18,13,12,7.40
2023,04,18,13,13,7.40
2023,04,18,13,14,7.40
2023,04,18,13,15,7.40
2023,04,18,13,16,7.40
2023,04,18,13,17,7.40
2023,04,18,13,18,7.40
2023,04,18,13,19,7.40
2023,04,18,13,20,7.50
2023,04,18,13,21,7.50
2023,04,18,13,22,7.50
2023,04,18,13,23,7.60
2023,04,18,13,24,7.60
2023,04,18,13,25,7.60
2023,04,18,13,26,7.60
2023,04,18,13,27,7.60
2023,04,18,13,28,7.50
2023,04,18,13,29,7.40
2023,04,18,13,30,7.40
2023,04,18,13,31,7.40
2023,04,18,13,32,7.40
2023,04,18,13,33,7.40
2023,04,18,13,34,7.40
2023,04,18,13,35,7.30
2023,04,18,13,36,7.30
2023,04,18,13,37,7.30
2023,04,18,13,38,7.30
2023,04,18,13,39,7.30
2023,04,18,13,40,7.30
2023,04,18,13,41,7.30
2023,04,18,13,42,7.30
2023,04,18,13,43,7.30
2023,04,18,13,44,7.30
2023,04,18,13,45,7.30
2023,04,18,13,46,7.30
2023,04,18,13,47,7.30
2023,04,18,13,48,7.30
2023,04,18,13,49,7.30
2023,04,18,13,50,7.30
2023,04,18,13,51,7.30
2023,04,18,13,52,7.30
2023,04,18,13,53,7.30
2023,04,18,13,54,7.30
2023,04,18,13,55,7.30
2023,04,18,13,56,7.30
2023,04,18,13,57,7.30
2023,04,18,13,58,7.40
2023,04,18,13,59,7.40
2023,04,18,14,00,7.50
2023,04,18,14,01,7.60
2023,04,18,14,02,7.70
2023,04,18,14,03,7.70
2023,04,18,14,04,7.70
2023,04,18,14,05,7.80
2023,04,18,14,06,7.80
2023,04,18,14,07,7.80
2023,04,18,14,08,7.80
2023,04,18,14,09,7.70
2023,04,18,14,10,7.80
2023,04,18,14,11,7.80
2023,04,18,14,12,7.80
2023,04,18,14,13,7.80
2023,04,18,14,14,7.80
2023,04,18,14,15,7.80
2023,04,18,14,16,7.80
2023,04,18,14,17,7.80
2023,04,18,14,18,7.80
2023,04,18,14,19,7.80
2023,04,18,14,20,7.80
2023,04,18,14,21,7.90
2023,04,18,14,22,7.90
2023,04,18,14,23,8.00
2023,04,18,14,24,8.10
2023,04,18,14,25,8.20
2023,04,18,14,26,8.30
2023,04,18,14,27,8.50
2023,04,18,14,28,8.60
2023,04,18,14,29,8.80
2023,04,18,14,30,8.90
2023,04,18,14,31,9.10
2023,04,18,14,32,9.20
2023,04,18,14,33,9.30
2023,04,18,14,34,9.30
2023,04,18,14,35,9.40
2023,04,18,14,36,9.40
2023,04,18,14,37,9.50
2023,04,18,14,38,9.70
2023,04,18,14,39,9.80
2023,04,18,14,40,9.90
2023,04,18,14,41,9.90
2023,04,18,14,42,9.90
2023,04,18,14,43,9.80
2023,04,18,14,44,9.70
2023,04,18,14,45,9.60
2023,04,18,14,46,9.50
2023,04,18,14,47,9.50
2023,04,18,14,48,9.40
2023,04,18,14,49,9.40
2023,04,18,14,50,9.30
2023,04,18,14,51,9.30
2023,04,18,14,52,9.40
2023,04,18,14,53,9.40
2023,04,18,14,54,9.30
2023,04,18,14,55,9.30
2023,04,18,14,56,9.30
2023,04,18,14,57,9.20
2023,04,18,14,58,9.20
2023,04,18,14,59,9.20
2023,04,18,15,00,9.10
2023,04,18,15,01,9.10
2023,04,18,15,02,9.10
2023,04,18,15,03,9.00
2023,04,18,15,04,9.10
2023,04,18,15,05,9.10
2023,04,18,15,06,9.20
2023,04,18,15,07,9.20
2023,04,18,15,08,9.20
2023,04,18,15,09,9.20
2023,04,18,15,10,9.10
2023,04,18,15,11,9.10
2023,04,18,15,12,9.10
2023,04,18,15,13,9.10
2023,04,18,15,14,9.10
2023,04,18,15,15,9.10
2023,04,18,15,16,9.10
2023,04,18,15,17,9.20
2023,04,18,15,18,9.20
2023,04,18,15,19,9.30
2023,04,18,15,20,9.30
2023,04,18,15,21,9.30
2023,04,18,15,22,9.30
2023,04,18,15,23,9.30
2023,04,18,15,24,9.30
2023,04,18,15,25,9.30
2023,04,18,15,26,9.20
2023,04,18,15,27,9.20
2023,04,18,15,28,9.20
2023,04,18,15,29,9.10
2023,04,18,15,30,9.10
2023,04,18,15,31,9.10
2023,04,18,15,32,9.00
2023,04,18,15,33,9.00
2023,04,18,15,34,8.90
2023,04,18,15,35,8.90
2023,04,18,15,36,8.90
2023,04,18,15,37,8.90
2023,04,18,15,38,8.90
2023,04,18,15,39,8.90
2023,04,18,15,40,8.90
2023,04,18,15,41,9.00
2023,04,18,15,42,9.00
2023,04,18,15,43,9.00
2023,04,18,15,44,9.00
2023,04,18,15,45,9.00
2023,04,18,15,46,9.00
2023,04,18,15,47,9.00
2023,04,18,15,48,9.00
2023,04,18,15,49,8.90
2023,04,18,15,50,8.90
2023,04,18,15,51,8.90
2023,04,18,15,52,8.90
2023,04,18,15,53,8.80
2023,04,18,15,54,8.80
2023,04,18,15,55,8.80
2023,04,18,15,56,8.80
2023,04,18,15,57,8.80
2023,04,18,15,58,8.80
2023,04,18,15,59,8.80
2023,04,18,16,00,8.80
2023,04,18,16,01,8.80
2023,04,18,16,02,8.70
2023,04,18,16,03,8.70
2023,04,18,16,04,8.70
2023,04,18,16,05,8.70
2023,04,18,16,06,8.60
2023,04,18,16,07,8.60
2023,04,18,16,08,8.60
2023,04,18,16,09,8.60
2023,04,18,16,10,8.60
2023,04,18,16,11,8.60
2023,04,18,16,12,8.60
2023,04,18,16,13,8.60
2023,04,18,16,14,8.60
2023,04,18,16,15,8.60
2023,04,18,16,16,8.60
2023,04,18,16,17,8.60
2023,04,18,16,18,8.60
2023,04,18,16,19,8.60
2023,04,18,16,20,8.60
2023,04,18,16,21,8.60
2023,04,18,16,22,8.60
2023,04,18,16,23,8.60
2023,04,18,16,24,8.60
2023,04,18,16,25,8.60
2023,04,18,16,26,8.60
2023,04,18,16,27,8.60
2023,04,18,16,28,8.60
2023,04,18,16,29,8.60
2023,04,18,16,30,8.60
2023,04,18,16,31,8.60
2023,04,18,16,32,8.60
2023,04,18,16,33,8.60
2023,04,18,16,34,8.60
2023,04,18,16,35,8.60
2023,04,18,16,36,8.60
2023,04,18,16,37,8.60
2023,04,18,16,38,8.60
2023,04,18,16,39,8.60
2023,04,18,16,40,8.60
2023,04,18,16,41,8.60
2023,04,18,16,42,8.60
2023,04,18,16,43,8.50
2023,04,18,16,44,8.50
2023,04,18,16,45,8.50
2023,04,18,16,46,8.50
2023,04,18,16,47,8.40
2023,04,18,16,48,8.40
2023,04,18,16,49,8.40
2023,04,18,16,50,8.30
2023,04,18,16,51,8.30
2023,04,18,16,52,8.30
2023,04,18,16,53,8.30
2023,04,18,16,54,8.30
2023,04,18,16,55,8.30
2023,04,18,16,56,8.30
2023,04,18,16,57,8.30
2023,04,18,16,58,8.30
2023,04,18,16,59,8.30
2023,04,18,17,00,8.40
2023,04,18,17,01,8.40
2023,04,18,17,02,8.40
2023,04,18,17,03,8.40
2023,04,18,17,04,8.50
2023,04,18,17,05,8.50
2023,04,18,17,06,8.60
2023,04,18,17,07,8.60
2023,04,18,17,08,8.70
2023,04,18,17,09,8.70
2023,04,18,17,10,8.70
2023,04,18,17,11,8.70
2023,04,18,17,12,8.70
2023,04,18,17,13,8.70
2023,04,18,17,14,8.80
2023,04,18,17,15,8.80
2023,04,18,17,16,8.80
2023,04,18,17,17,8.80
2023,04,18,17,18,8.80
2023,04,18,17,19,8.70
2023,04,18,17,20,8.70
2023,04,18,17,21,8.70
2023,04,18,17,22,8.70
2023,04,18,17,23,8.70
2023,04,18,17,24,8.70
2023,04,18,17,25,8.70
2023,04,18,17,26,8.70
2023,04,18,17,27,8.70
2023,04,18,17,28,8.70
2023,04,18,17,29,8.60
2023,04,18,17,30,8.60
2023,04,18,17,31,8.60
2023,04,18,17,32,8.60
2023,04,18,17,33,8.60
2023,04,18,17,34,8.50
2023,04,18,17,35,8.50
2023,04,18,17,36,8.50
2023,04,18,17,37,8.50
2023,04,18,17,38,8.50
2023,04,18,17,39,8.40
2023,04,18,17,40,8.40
2023,04,18,17,41,8.40
2023,04,18,17,42,8.40
2023,04,18,17,43,8.40
2023,04,18,17,44,8.40
2023,04,18,17,45,8.40
2023,04,18,17,46,8.40
2023,04,18,17,47,8.40
2023,04,18,17,48,8.50
2023,04,18,17,49,8.50
2023,04,18,17,50,8.50
2023,04,18,17,51,8.50
2023,04,18,17,52,8.50
2023,04,18,17,53,8.50
2023,04,18,17,54,8.50
2023,04,18,17,55,8.60
2023,04,18,17,56,8.60
2023,04,18,17,57,8.60
2023,04,18,17,58,8.60
2023,04,18,17,59,8.60
2023,04,18,18,00,8.60
2023,04,18,18,01,8.60
2023,04,18,18,02,8.60
2023,04,18,18,03,8.60
2023,04,18,18,04,8.60
2023,04,18,18,05,8.60
2023,04,18,18,06,8.60
2023,04,18,18,07,8.60
2023,04,18,18,08,8.60
2023,04,18,18,09,8.50
2023,04,18,18,10,8.50
2023,04,18,18,11,8.40
2023,04,18,18,12,8.40
2023,04,18,18,13,8.40
2023,04,18,18,14,8.40
2023,04,18,18,15,8.40
2023,04,18,18,16,8.40
2023,04,18,18,17,8.40
2023,04,18,18,18,8.40
2023,04,18,18,19,8.40
2023,04,18,18,20,8.40
2023,04,18,18,21,8.40
2023,04,18,18,22,8.50
2023,04,18,18,23,8.50
2023,04,18,18,24,8.50
2023,04,18,18,25,8.50
2023,04,18,18,26,8.50
2023,04,18,18,27,8.50
2023,04,18,18,28,8.50
2023,04,18,18,29,8.50
2023,04,18,18,30,8.50
2023,04,18,18,31,8.40
2023,04,18,18,32,8.40
2023,04,18,18,33,8.40
2023,04,18,18,34,8.40
2023,04,18,18,35,8.30
2023,04,18,18,36,8.30
2023,04,18,18,37,8.30
2023,04,18,18,38,8.30
2023,04,18,18,39,8.30
2023,04,18,18,40,8.30
2023,04,18,18,41,8.30
2023,04,18,18,42,8.30
2023,04,18,18,43,8.30
2023,04,18,18,44,8.20
2023,04,18,18,45,8.20
2023,04,18,18,46,8.20
2023,04,18,18,47,8.20
2023,04,18,18,48,8.20
2023,04,18,18,49,8.20
2023,04,18,18,50,8.20
2023,04,18,18,51,8.20
2023,04,18,18,52,8.20
2023,04,18,18,53,8.10
2023,04,18,18,54,8.10
2023,04,18,18,55,8.10
2023,04,18,18,56,8.10
2023,04,18,18,57,8.10
2023,04,18,18,58,8.10
2023,04,18,18,59,8.10
2023,04,18,19,00,8.10
2023,04,18,19,01,8.10
2023,04,18,19,02,8.10
2023,04,18,19,03,8.10
2023,04,18,19,04,8.10
2023,04,18,19,05,8.10
2023,04,18,19,06,8.10
2023,04,18,19,07,8.00
2023,04,18,19,08,8.10
2023,04,18,19,09,8.00
2023,04,18,19,10,8.00
2023,04,18,19,11,8.00
2023,04,18,19,12,8.00
2023,04,18,19,13,8.00
2023,04,18,19,14,8.00
2023,04,18,19,15,8.00
2023,04,18,19,16,8.00
2023,04,18,19,17,8.00
2023,04,18,19,18,8.00
2023,04,18,19,19,8.00
2023,04,18,19,20,7.90
2023,04,18,19,21,7.90
2023,04,18,19,22,7.90
2023,04,18,19,23,7.90
2023,04,18,19,24,7.90
2023,04,18,19,25,7.90
2023,04,18,19,26,7.90
2023,04,18,19,27,8.00
2023,04,18,19,28,8.00
2023,04,18,19,29,8.00
2023,04,18,19,30,8.00
2023,04,18,19,31,8.00
2023,04,18,19,32,8.00
2023,04,18,19,33,8.10
2023,04,18,19,34,8.00
2023,04,18,19,35,8.00
2023,04,18,19,36,8.10
2023,04,18,19,37,8.10
2023,04,18,19,38,8.00
2023,04,18,19,39,8.00
2023,04,18,19,40,8.00
2023,04,18,19,41,8.00
2023,04,18,19,42,8.00
2023,04,18,19,43,8.00
2023,04,18,19,44,7.90
2023,04,18,19,45,7.90
2023,04,18,19,46,7.90
2023,04,18,19,47,7.90
2023,04,18,19,48,7.80
2023,04,18,19,49,7.80
2023,04,18,19,50,7.80
2023,04,18,19,51,7.80
2023,04,18,19,52,7.80
2023,04,18,19,53,7.70
2023,04,18,19,54,7.70
2023,04,18,19,55,7.70
2023,04,18,19,56,7.70
2023,04,18,19,57,7.60
2023,04,18,19,58,7.60
2023,04,18,19,59,7.60
2023,04,18,20,00,7.50
2023,04,18,20,01,7.50
2023,04,18,20,02,7.50
2023,04,18,20,03,7.40
2023,04,18,20,04,7.40
2023,04,18,20,05,7.40
2023,04,18,20,06,7.30
2023,04,18,20,07,7.30
2023,04,18,20,08,7.30
2023,04,18,20,09,7.30
2023,04,18,20,10,7.20
2023,04,18,20,11,7.20
2023,04,18,20,12,7.20
2023,04,18,20,13,7.20
2023,04,18,20,14,7.20
2023,04,18,20,15,7.20
2023,04,18,20,16,7.20
2023,04,18,20,17,7.20
2023,04,18,20,18,7.20
2023,04,18,20,19,7.10
2023,04,18,20,20,7.10
2023,04,18,20,21,7.10
2023,04,18,20,22,7.10
2023,04,18,20,23,7.00
2023,04,18,20,24,7.00
2023,04,18,20,25,7.00
2023,04,18,20,26,7.00
2023,04,18,20,27,7.00
2023,04,18,20,28,6.90
2023,04,18,20,29,6.90
2023,04,18,20,30,6.90
2023,04,18,20,31,6.80
2023,04,18,20,32,6.80
2023,04,18,20,33,6.80
2023,04,18,20,34,6.80
2023,04,18,20,35,6.70
2023,04,18,20,36,6.70
2023,04,18,20,37,6.70
2023,04,18,20,38,6.60
2023,04,18,20,39,6.60
2023,04,18,20,40,6.50
2023,04,18,20,41,6.50
2023,04,18,20,42,6.50
2023,04,18,20,43,6.40
2023,04,18,20,44,6.40
2023,04,18,20,45,6.40
2023,04,18,20,46,6.30
2023,04,18,20,47,6.30
2023,04,18,20,48,6.30
2023,04,18,20,49,6.30
2023,04,18,20,50,6.20
2023,04,18,20,51,6.20
2023,04,18,20,52,6.20
2023,04,18,20,53,6.20
2023,04,18,20,54,6.20
2023,04,18,20,55,6.20
2023,04,18,20,56,6.20
2023,04,18,20,57,6.20
2023,04,18,20,58,6.20
2023,04,18,20,59,6.20
2023,04,18,21,00,6.20
2023,04,18,21,01,6.10
2023,04,18,21,02,6.10
2023,04,18,21,03,6.10
2023,04,18,21,04,6.10
2023,04,18,21,05,6.10
2023,04,18,21,06,6.10
2023,04,18,21,07,6.00
2023,04,18,21,08,6.00
2023,04,18,21,09,6.00
2023,04,18,21,10,6.00
2023,04,18,21,11,5.90
2023,04,18,21,12,5.90
2023,04,18,21,13,5.90
2023,04,18,21,14,5.90
2023,04,18,21,15,5.80
2023,04,18,21,16,5.80
2023,04,18,21,17,5.80
2023,04,18,21,18,5.80
2023,04,18,21,19,5.80
2023,04,18,21,20,5.70
2023,04,18,21,21,5.70
2023,04,18,21,22,5.70
2023,04,18,21,23,5.70
2023,04,18,21,24,5.70
2023,04,18,21,25,5.60
2023,04,18,21,26,5.60
2023,04,18,21,27,5.60
2023,04,18,21,28,5.60
2023,04,18,21,29,5.60
2023,04,18,21,30,5.50
2023,04,18,21,31,5.50
2023,04,18,21,32,5.50
2023,04,18,21,33,5.50
2023,04,18,21,34,5.50
2023,04,18,21,35,5.40
2023,04,18,21,36,5.40
2023,04,18,21,37,5.40
2023,04,18,21,38,5.40
2023,04,18,21,39,5.40
2023,04,18,21,40,5.40
2023,04,18,21,41,5.40
2023,04,18,21,42,5.40
2023,04,18,21,43,5.40
2023,04,18,21,44,5.40
2023,04,18,21,45,5.40
2023,04,18,21,46,5.40
2023,04,18,21,47,5.40
2023,04,18,21,48,5.40
2023,04,18,21,49,5.40
2023,04,18,21,50,5.40
2023,04,18,21,51,5.30
2023,04,18,21,52,5.30
2023,04,18,21,53,5.30
2023,04,18,21,54,5.30
2023,04,18,21,55,5.30
2023,04,18,21,56,5.30
2023,04,18,21,57,5.30
2023,04,18,21,58,5.30
2023,04,18,21,59,5.30
2023,04,18,22,00,5.30
2023,04,18,22,01,5.30
2023,04,18,22,02,5.30
2023,04,18,22,03,5.30
2023,04,18,22,04,5.30
2023,04,18,22,05,5.30
2023,04,18,22,06,5.30
2023,04,18,22,07,5.30
2023,04,18,22,08,5.30
2023,04,18,22,09,5.30
2023,04,18,22,10,5.20
2023,04,18,22,11,5.20
2023,04,18,22,12,5.20
2023,04,18,22,13,5.20
2023,04,18,22,14,5.20
2023,04,18,22,15,5.20
2023,04,18,22,16,5.10
2023,04,18,22,17,5.10
2023,04,18,22,18,5.10
2023,04,18,22,19,5.10
2023,04,18,22,20,5.10
2023,04,18,22,21,5.10
2023,04,18,22,22,5.10
2023,04,18,22,23,5.10
2023,04,18,22,24,5.00
2023,04,18,22,25,5.00
2023,04,18,22,26,5.00
2023,04,18,22,27,4.90
2023,04,18,22,28,4.90
2023,04,18,22,29,4.90
2023,04,18,22,30,4.90
2023,04,18,22,31,4.90
2023,04,18,22,32,4.90
2023,04,18,22,33,4.80
2023,04,18,22,34,4.80
2023,04,18,22,35,4.80
2023,04,18,22,36,4.80
2023,04,18,22,37,4.80
2023,04,18,22,38,4.70
2023,04,18,22,39,4.70
2023,04,18,22,40,4.70
2023,04,18,22,41,4.60
2023,04,18,22,42,4.60
2023,04,18,22,43,4.60
2023,04,18,22,44,4.60
2023,04,18,22,45,4.50
2023,04,18,22,46,4.50
2023,04,18,22,47,4.50
2023,04,18,22,48,4.50
2023,04,18,22,49,4.40
2023,04,18,22,50,4.40
2023,04,18,22,51,4.40
2023,04,18,22,52,4.40
2023,04,18,22,53,4.40
2023,04,18,22,54,4.30
2023,04,18,22,55,4.30
2023,04,18,22,56,4.30
2023,04,18,22,57,4.30
2023,04,18,22,58,4.30
2023,04,18,22,59,4.30
2023,04,18,23,00,4.30
2023,04,18,23,01,4.20
2023,04,18,23,02,4.20
2023,04,18,23,03,4.20
2023,04,18,23,04,4.20
2023,04,18,23,05,4.20
2023,04,18,23,06,4.20
2023,04,18,23,07,4.20
2023,04,18,23,08,4.20
2023,04,18,23,09,4.10
2023,04,18,23,10,4.10
2023,04,18,23,11,4.10
2023,04,18,23,12,4.10
2023,04,18,23,13,4.10
2023,04,18,23,14,4.10
2023,04,18,23,15,4.00
2023,04,18,23,16,4.00
2023,04,18,23,17,4.00
2023,04,18,23,18,3.90
2023,04,18,23,19,3.90
2023,04,18,23,20,3.90
2023,04,18,23,21,3.90
2023,04,18,23,22,3.80
2023,04,18,23,23,3.80
2023,04,18,23,24,3.80
2023,04,18,23,25,3.80
2023,04,18,23,26,3.80
2023,04,18,23,27,3.80
2023,04,18,23,28,3.80
2023,04,18,23,29,3.80
2023,04,18,23,30,3.80
2023,04,18,23,31,3.80
2023,04,18,23,32,3.80
2023,04,18,23,33,3.70
2023,04,18,23,34,3.70
2023,04,18,23,35,3.70
2023,04,18,23,36,3.70
2023,04,18,23,37,3.70
2023,04,18,23,38,3.70
2023,04,18,23,39,3.70
2023,04,18,23,40,3.70
2023,04,18,23,41,3.70
2023,04,18,23,42,3.70
2023,04,18,23,43,3.70
2023,04,18,23,44,3.70
2023,04,18,23,45,3.70
2023,04,18,23,46,3.70
2023,04,18,23,47,3.60
2023,04,18,23,48,3.60
2023,04,18,23,49,3.60
2023,04,18,23,50,3.60
2023,04,18,23,51,3.60
2023,04,18,23,52,3.60
2023,04,18,23,53,3.60
2023,04,18,23,54,3.60
2023,04,18,23,55,3.60
2023,04,18,23,56,3.60
2023,04,18,23,57,3.60
2023,04,18,23,58,3.60
2023,04,18,23,59,3.60
